"2016-03-18 00:00:00",1467291,6.731,50.46,7.214,1.306,3.946,98.57268,-4.336,-3.083,93,0,109.4,13.41,-3.60,12.5
"2016-03-18 00:00:30",1467292,7.336,48.32,7.176,1.678,3.724,98.57778,-4.323,-3.088,93,0,109.4,13.41,-3.59,10.3
"2016-03-18 00:01:00",1467293,7.153,49.51,6.75,1.3,4.094,98.57864,-4.321,-3.091,93,0,109.4,13.41,-3.58,11.5
"2016-03-18 00:01:30",1467294,7.002,50.01,5.912,1.19,4.195,98.58034,-4.317,-3.071,93.1,0,109.4,13.41,-3.58,12.0
"2016-03-18 00:02:00",1467295,6.307,44.95,6.491,1.367,3.731,98.58262,-4.311,-3.061,93.1,0,109.4,13.41,-3.57,7.0
"2016-03-18 00:02:30",1467296,6.713,47.71,6.89,1.432,3.588,98.59028,-4.291,-3.055,93.1,0,109.4,13.4,-3.55,9.7
"2016-03-18 00:03:00",1467297,7.12,48.07,7.285,1.421,3.617,98.59367,-4.283,-3.073,93.1,0,109.4,13.4,-3.55,10.1
"2016-03-18 00:03:30",1467298,7.088,46.07,7.323,1.38,3.876,98.59453,-4.281,-3.058,93.1,0,109.4,13.4,-3.54,8.1
"2016-03-18 00:04:00",1467299,7.281,47.28,6.311,1.379,4,98.59482,-4.28,-3.046,93.1,0,109.4,13.4,-3.54,9.3
"2016-03-18 00:04:30",1467300,7.44,45.63,8.02,2.005,4.074,98.59143,-4.289,-3.038,93.1,0,109.5,13.4,-3.55,7.6
"2016-03-18 00:05:00",1467301,6.7,41.97,7.004,1.326,3.685,98.58858,-4.296,-3.038,93.1,0,109.4,13.4,-3.56,4.0
"2016-03-18 00:05:30",1467302,6.662,46.77,6.812,1.374,3.643,98.59113,-4.289,-3.067,93.1,0,109.4,13.4,-3.55,8.8
"2016-03-18 00:06:00",1467303,7.383,50.55,6.862,1.197,3.966,98.5937,-4.283,-3.063,93.1,0,109.4,13.4,-3.55,12.5
"2016-03-18 00:06:30",1467304,6.639,47.97,6.553,1.235,3.731,98.59538,-4.279,-3.055,93.1,0,109.4,13.4,-3.54,10.0
"2016-03-18 00:07:00",1467305,7.258,45.87,7.241,1.529,3.52,98.59423,-4.281,-3.044,93.1,0,109.4,13.4,-3.54,7.9
"2016-03-18 00:07:30",1467306,7.008,43.37,6.648,1.421,3.611,98.59057,-4.291,-3.057,93.1,0,109.4,13.4,-3.55,5.4
"2016-03-18 00:08:00",1467307,8.55,49.85,6.132,1.218,3.769,98.58802,-4.297,-3.037,93.1,0,109.4,13.4,-3.56,11.8
"2016-03-18 00:08:30",1467308,8.61,51.79,6.993,1.345,4.065,98.5826,-4.311,-3.031,93.2,0,109.4,13.4,-3.57,13.8
"2016-03-18 00:09:00",1467309,7.614,46.12,6.876,1.302,3.739,98.57949,-4.319,-3.049,93.2,0,109.4,13.41,-3.58,8.1
"2016-03-18 00:09:30",1467310,8.42,49.45,6.48,1.501,3.872,98.57696,-4.325,-3.061,93.1,0,109.4,13.41,-3.59,11.5
"2016-03-18 00:10:00",1467311,8.2,47.69,6.789,1.513,3.875,98.57808,-4.323,-3.062,93.2,0,109.5,13.41,-3.59,9.7
"2016-03-18 00:10:30",1467312,6.748,44.68,6.136,1.344,4.085,98.57751,-4.324,-3.065,93.2,0,109.4,13.41,-3.59,6.7
"2016-03-18 00:11:00",1467313,6.5,43.35,6.321,1.155,4.134,98.57298,-4.336,-3.071,93.2,0,109.4,13.41,-3.60,5.3
"2016-03-18 00:11:30",1467314,7.358,45.47,6.258,1.442,3.93,98.57127,-4.34,-3.07,93.2,0,109.4,13.41,-3.60,7.5
"2016-03-18 00:12:00",1467315,6.447,42.36,6.95,1.272,3.459,98.56787,-4.349,-3.075,93.2,0,109.4,13.41,-3.61,4.4
"2016-03-18 00:12:30",1467316,6.604,42.16,6.625,1.119,3.722,98.56644,-4.352,-3.09,93.2,0,109.4,13.41,-3.62,4.2
"2016-03-18 00:13:00",1467317,6.37,41.75,6.949,1.297,3.936,98.56333,-4.36,-3.081,93.2,0,109.4,13.41,-3.62,3.8
"2016-03-18 00:13:30",1467318,6.548,43.73,6.563,1.351,3.884,98.56419,-4.358,-3.078,93.2,0,109.4,13.41,-3.62,5.7
"2016-03-18 00:14:00",1467319,6.964,42.98,6.253,1.279,3.849,98.56248,-4.362,-3.074,93.2,0,109.4,13.41,-3.63,5.0
"2016-03-18 00:14:30",1467320,6.52,43.61,6.128,1.302,3.739,98.56221,-4.363,-3.091,93.2,0,109.4,13.41,-3.63,5.6
"2016-03-18 00:15:00",1467321,6.501,42.83,6.187,1.194,3.587,98.56221,-4.363,-3.103,93.2,0,109.4,13.41,-3.63,4.8
"2016-03-18 00:15:30",1467322,6.288,41.47,6.374,1.175,3.842,98.56081,-4.367,-3.102,93.2,0,109.4,13.41,-3.63,3.5
"2016-03-18 00:16:00",1467323,6.639,39.81,6.439,1.226,3.513,98.56277,-4.362,-3.092,93.2,0,109.4,13.41,-3.62,1.8
"2016-03-18 00:16:30",1467324,6.315,41.49,6.217,1.282,3.924,98.56221,-4.363,-3.082,93.2,0,109.4,13.41,-3.63,3.5
"2016-03-18 00:17:00",1467325,7.498,43.94,6.57,1.383,3.626,98.56304,-4.361,-3.091,93.2,0,109.4,13.41,-3.62,5.9
"2016-03-18 00:17:30",1467326,7.033,37.62,6.811,1.326,3.362,98.56332,-4.36,-3.104,93.2,0,109.4,13.41,-3.62,359.6
"2016-03-18 00:18:00",1467327,7.054,39.71,7.827,1.681,3.876,98.56304,-4.361,-3.093,93.3,0,109.4,13.41,-3.62,1.7
"2016-03-18 00:18:30",1467328,6.694,41.72,6.777,1.243,3.814,98.56248,-4.362,-3.094,93.3,0,109.4,13.41,-3.63,3.7
"2016-03-18 00:19:00",1467329,6.732,38.42,6.106,1.274,3.499,98.56304,-4.361,-3.102,93.3,0,109.4,13.41,-3.62,0.4
"2016-03-18 00:19:30",1467330,7.105,38.16,6.307,1.167,3.817,98.56304,-4.361,-3.109,93.3,0,109.4,13.4,-3.62,0.2
"2016-03-18 00:20:00",1467331,7.018,38.48,6.156,1.165,3.957,98.56277,-4.362,-3.067,93.3,0,109.4,13.4,-3.62,0.5
"2016-03-18 00:20:30",1467332,6.528,38.34,6.781,1.224,3.952,98.56304,-4.361,-3.122,93.3,0,109.4,13.4,-3.62,0.3
"2016-03-18 00:21:00",1467333,6.49,39.1,5.905,1.217,3.89,98.56304,-4.361,-3.098,93.3,0,109.4,13.4,-3.62,1.1
"2016-03-18 00:21:30",1467334,6.296,39.23,6.441,1.222,3.739,98.56277,-4.362,-3.089,93.3,0,109.4,13.4,-3.62,1.2
"2016-03-18 00:22:00",1467335,6.53,37.98,5.981,1.187,3.719,98.56277,-4.362,-3.128,93.3,0,109.4,13.4,-3.62,360.0
"2016-03-18 00:22:30",1467336,6.609,35.77,6.322,1.226,4.099,98.56277,-4.362,-3.125,93.3,0,109.5,13.4,-3.62,357.8
"2016-03-18 00:23:00",1467337,6.356,35.64,6.398,1.327,3.769,98.56304,-4.361,-3.089,93.3,0,109.4,13.4,-3.62,357.6
"2016-03-18 00:23:30",1467338,6.748,35.38,6.301,1.247,3.958,98.56304,-4.361,-3.119,93.3,0,109.4,13.4,-3.62,357.4
"2016-03-18 00:24:00",1467339,6.948,34.14,6.138,1.285,4.155,98.56332,-4.36,-3.116,93.3,0,109.4,13.4,-3.62,356.1
"2016-03-18 00:24:30",1467340,6.828,33.7,6.44,1.25,3.795,98.56277,-4.362,-3.096,93.3,0,109.4,13.41,-3.62,355.7
"2016-03-18 00:25:00",1467341,7.012,33.86,5.863,1.189,3.781,98.56304,-4.361,-3.104,93.3,0,109.4,13.41,-3.62,355.9
"2016-03-18 00:25:30",1467342,7.082,34.14,6.404,1.182,3.795,98.56304,-4.361,-3.108,93.3,0,109.4,13.41,-3.62,356.1
"2016-03-18 00:26:00",1467343,6.972,34.62,6.487,1.26,3.822,98.56304,-4.361,-3.134,93.3,0,109.5,13.41,-3.62,356.6
"2016-03-18 00:26:30",1467344,6.745,36.24,5.971,1.281,4.127,98.56304,-4.361,-3.088,93.4,0,109.4,13.41,-3.62,358.2
"2016-03-18 00:27:00",1467345,6.709,37.94,6.554,1.22,4.33,98.56304,-4.361,-3.105,93.4,0,109.4,13.41,-3.62,359.9
"2016-03-18 00:27:30",1467346,6.471,38.18,6.746,1.227,4.095,98.56304,-4.361,-3.093,93.4,0,109.4,13.41,-3.62,0.2
"2016-03-18 00:28:00",1467347,6.463,38.92,6.486,1.235,3.91,98.56304,-4.361,-3.069,93.4,0,109.4,13.41,-3.62,0.9
"2016-03-18 00:28:30",1467348,6.669,38.98,6.168,1.253,3.954,98.56332,-4.36,-3.083,93.3,0,109.4,13.41,-3.62,1.0
"2016-03-18 00:29:00",1467349,6.905,38.11,6.506,1.165,3.916,98.56332,-4.36,-3.118,93.4,0,109.4,13.41,-3.62,0.1
"2016-03-18 00:29:30",1467350,6.891,37.81,6.304,1.217,3.847,98.56304,-4.361,-3.103,93.4,0,109.5,13.41,-3.62,359.8
"2016-03-18 00:30:00",1467351,6.713,37.58,6.349,1.28,4.096,98.56276,-4.362,-3.119,93.4,0,109.4,13.41,-3.62,359.6
"2016-03-18 00:30:30",1467352,6.584,39.62,6.187,1.215,4.111,98.56135,-4.365,-3.105,93.4,0,109.4,13.41,-3.63,1.6
"2016-03-18 00:31:00",1467353,6.484,39.69,6.143,1.134,4.042,98.5568,-4.377,-3.11,93.4,0,109.4,13.41,-3.64,1.7
"2016-03-18 00:31:30",1467354,6.416,41.53,6.314,1.284,3.578,98.55057,-4.393,-3.095,93.4,0,109.4,13.41,-3.66,3.5
"2016-03-18 00:32:00",1467355,6.714,40.62,6.824,1.225,3.65,98.54661,-4.403,-3.137,93.4,0,109.4,13.41,-3.67,2.6
"2016-03-18 00:32:30",1467356,6.239,39.36,6.287,1.309,3.896,98.54744,-4.401,-3.136,93.4,0,109.4,13.41,-3.66,1.4
"2016-03-18 00:33:00",1467357,6.187,40.13,7.251,1.21,3.932,98.54604,-4.404,-3.135,93.4,0,109.4,13.41,-3.67,2.1
"2016-03-18 00:33:30",1467358,6.122,41.54,6.062,1.265,4.085,98.54575,-4.405,-3.1,93.4,0,109.4,13.41,-3.67,3.5
"2016-03-18 00:34:00",1467359,6.461,39.93,6.101,1.177,3.811,98.54546,-4.406,-3.11,93.4,0,109.4,13.41,-3.67,1.9
"2016-03-18 00:34:30",1467360,6.118,38.59,6.418,1.282,3.455,98.54432,-4.409,-3.161,93.4,0,109.4,13.41,-3.67,0.6
"2016-03-18 00:35:00",1467361,6.233,39.18,6.308,1.208,4.013,98.54461,-4.408,-3.158,93.4,0,109.4,13.41,-3.67,1.2
"2016-03-18 00:35:30",1467362,6.216,38.14,6.546,1.244,3.887,98.54544,-4.406,-3.133,93.4,0,109.4,13.41,-3.67,0.1
"2016-03-18 00:36:00",1467363,6.108,39.03,5.77,1.231,3.6,98.54629,-4.404,-3.134,93.4,0,109.4,13.41,-3.67,1.0
"2016-03-18 00:36:30",1467364,6.207,37.47,6.043,1.224,3.808,98.54516,-4.406,-3.117,93.4,0,109.4,13.41,-3.67,359.5
"2016-03-18 00:37:00",1467365,6.572,35.25,6.23,1.219,3.568,98.54575,-4.405,-3.139,93.4,0,109.4,13.41,-3.67,357.2
"2016-03-18 00:37:30",1467366,6.833,33.49,6.784,1.253,3.81,98.54489,-4.407,-3.166,93.4,0,109.4,13.41,-3.67,355.5
"2016-03-18 00:38:00",1467367,6.8,33.53,6.334,1.217,3.987,98.54688,-4.402,-3.151,93.4,0,109.4,13.41,-3.67,355.5
"2016-03-18 00:38:30",1467368,6.44,33.23,6.283,1.265,3.593,98.54604,-4.404,-3.115,93.5,0,109.4,13.41,-3.67,355.2
"2016-03-18 00:39:00",1467369,6.354,32.86,6.411,1.206,4.048,98.54688,-4.402,-3.153,93.4,0,109.4,13.41,-3.67,354.9
"2016-03-18 00:39:30",1467370,6.157,32.88,5.945,1.247,3.632,98.54771,-4.4,-3.122,93.4,0,109.4,13.41,-3.66,354.9
"2016-03-18 00:40:00",1467371,5.897,31.03,6.827,1.209,3.689,98.5466,-4.403,-3.144,93.4,0,109.4,13.41,-3.67,353.0
"2016-03-18 00:40:30",1467372,5.9,31.32,6.811,1.272,3.829,98.54716,-4.401,-3.133,93.5,0,109.4,13.41,-3.66,353.3
"2016-03-18 00:41:00",1467373,5.979,32.97,5.915,1.238,3.566,98.55083,-4.392,-3.113,93.5,0,109.4,13.41,-3.66,355.0
"2016-03-18 00:41:30",1467374,6.015,31.63,6.334,1.302,3.472,98.55027,-4.393,-3.144,93.4,0,109.4,13.41,-3.66,353.6
"2016-03-18 00:42:00",1467375,5.985,31.56,6.841,1.327,3.867,98.54943,-4.396,-3.114,93.5,0,109.4,13.41,-3.66,353.6
"2016-03-18 00:42:30",1467376,5.669,32.23,6.075,1.245,3.886,98.55028,-4.393,-3.114,93.4,0,109.4,13.41,-3.66,354.2
"2016-03-18 00:43:00",1467377,6.08,31.94,6.854,1.208,3.934,98.55169,-4.39,-3.114,93.5,0,109.4,13.41,-3.65,353.9
"2016-03-18 00:43:30",1467378,5.9,32.79,5.977,1.329,3.777,98.55141,-4.39,-3.096,93.5,0,109.4,13.41,-3.65,354.8
"2016-03-18 00:44:00",1467379,6.487,32.73,5.954,1.263,3.55,98.55708,-4.376,-3.114,93.5,0,109.4,13.41,-3.64,354.7
"2016-03-18 00:44:30",1467380,6.935,32.17,6.221,1.194,3.788,98.56104,-4.366,-3.125,93.5,0,109.4,13.41,-3.63,354.2
"2016-03-18 00:45:00",1467381,7.099,32.3,6.491,1.269,3.833,98.56218,-4.363,-3.094,93.5,0,109.4,13.41,-3.63,354.3
"2016-03-18 00:45:30",1467382,7.154,32.9,6.162,1.286,3.838,98.56416,-4.358,-3.068,93.5,0,109.4,13.41,-3.62,354.9
"2016-03-18 00:46:00",1467383,7.457,33.48,6.187,1.175,4.188,98.5636,-4.359,-3.095,93.5,0,109.4,13.41,-3.62,355.5
"2016-03-18 00:46:30",1467384,6.971,31.49,6.524,1.195,4.005,98.56416,-4.358,-3.092,93.4,0,109.4,13.41,-3.62,353.5
"2016-03-18 00:47:00",1467385,6.493,30.33,7.175,1.289,3.873,98.56472,-4.357,-3.101,93.4,0,109.4,13.41,-3.62,352.3
"2016-03-18 00:47:30",1467386,6.972,31.74,6.604,1.235,4.383,98.56583,-4.354,-3.085,93.5,0,109.4,13.41,-3.62,353.7
"2016-03-18 00:48:00",1467387,7.113,32.84,5.71,1.268,4.209,98.56445,-4.357,-3.058,93.5,0,109.4,13.41,-3.62,354.8
"2016-03-18 00:48:30",1467388,7.376,32.73,6.824,1.307,4.409,98.5664,-4.352,-3.072,93.5,0,109.4,13.41,-3.62,354.7
"2016-03-18 00:49:00",1467389,7.417,32.35,6.341,1.168,4.173,98.56556,-4.354,-3.08,93.5,0,109.4,13.41,-3.62,354.4
"2016-03-18 00:49:30",1467390,7.378,32.3,6.26,1.179,4.428,98.5664,-4.352,-3.097,93.5,0,109.4,13.41,-3.62,354.3
"2016-03-18 00:50:00",1467391,7.035,31.65,6.406,1.277,4.288,98.56667,-4.352,-3.09,93.5,0,109.4,13.41,-3.61,353.6
"2016-03-18 00:50:30",1467392,7.097,33.46,5.916,1.234,4.245,98.56779,-4.349,-3.056,93.5,0,109.4,13.41,-3.61,355.5
"2016-03-18 00:51:00",1467393,6.88,32.64,6.664,1.222,4.729,98.56779,-4.349,-3.084,93.5,0,109.4,13.41,-3.61,354.6
"2016-03-18 00:51:30",1467394,6.96,33.68,6.555,1.253,4.049,98.56892,-4.346,-3.057,93.5,0,109.4,13.41,-3.61,355.7
"2016-03-18 00:52:00",1467395,7.08,34.32,6.586,1.284,4.391,98.56835,-4.347,-3.064,93.5,0,109.4,13.41,-3.61,356.3
"2016-03-18 00:52:30",1467396,7.207,33.74,6.141,1.273,4.522,98.56779,-4.349,-3.077,93.5,0,109.4,13.41,-3.61,355.7
"2016-03-18 00:53:00",1467397,7.378,34.28,5.857,1.283,4.291,98.56892,-4.346,-3.056,93.5,0,109.4,13.41,-3.61,356.3
"2016-03-18 00:53:30",1467398,7.351,32.54,6.498,1.224,4.122,98.56863,-4.347,-3.078,93.5,0,109.4,13.41,-3.61,354.5
"2016-03-18 00:54:00",1467399,7.156,31.79,6.782,1.233,4.41,98.56892,-4.346,-3.073,93.5,0,109.4,13.4,-3.61,353.8
"2016-03-18 00:54:30",1467400,6.832,32.59,6.154,1.321,4.559,98.56919,-4.345,-3.057,93.5,0,109.4,13.4,-3.61,354.6
"2016-03-18 00:55:00",1467401,6.368,30.22,6.175,1.206,4.419,98.56667,-4.352,-3.062,93.5,0,109.4,13.4,-3.61,352.2
"2016-03-18 00:55:30",1467402,6.24,31.68,5.857,1.255,3.886,98.56751,-4.349,-3.035,93.5,0,109.4,13.4,-3.61,353.7
"2016-03-18 00:56:00",1467403,5.983,29.83,6.804,1.324,3.959,98.56779,-4.349,-3.048,93.5,0,109.4,13.4,-3.61,351.8
"2016-03-18 00:56:30",1467404,6.193,31.74,6.731,1.233,4.171,98.56863,-4.347,-3.064,93.5,0,109.4,13.4,-3.61,353.7
"2016-03-18 00:57:00",1467405,6.026,31.53,6.165,1.29,4.408,98.56808,-4.348,-3.078,93.5,0,109.4,13.4,-3.61,353.5
"2016-03-18 00:57:30",1467406,6.409,33.12,5.942,1.224,4.328,98.56835,-4.347,-3.029,93.5,0,109.4,13.4,-3.61,355.1
"2016-03-18 00:58:00",1467407,6.637,33.69,6.273,1.138,4.119,98.56695,-4.351,-3.026,93.5,0,109.4,13.41,-3.61,355.7
"2016-03-18 00:58:30",1467408,6.118,32.68,6.713,1.247,3.722,98.56751,-4.349,-3.077,93.5,0,109.4,13.41,-3.61,354.7
"2016-03-18 00:59:00",1467409,6.054,32.49,6.768,1.18,4.187,98.56724,-4.35,-3.072,93.5,0,109.4,13.41,-3.61,354.5
"2016-03-18 00:59:30",1467410,6.307,31.97,6.296,1.253,4.291,98.56863,-4.347,-3.047,93.5,0,109.4,13.41,-3.61,354.0
"2016-03-18 01:00:00",1467411,6.456,33.49,6.306,1.342,4.086,98.56975,-4.344,-3.054,93.5,0,109.4,13.41,-3.61,355.5
"2016-03-18 01:00:30",1467412,5.858,31.42,6.982,1.239,4.286,98.56863,-4.347,-3.022,93.5,0,109.4,13.41,-3.61,353.4
"2016-03-18 01:01:00",1467413,6.222,31.84,6.152,1.17,4.058,98.56863,-4.347,-3.033,93.5,0,109.4,13.41,-3.61,353.8
"2016-03-18 01:01:30",1467414,6.68,32.37,6.631,1.269,4.38,98.56947,-4.344,-3.052,93.5,0,109.4,13.41,-3.61,354.4
"2016-03-18 01:02:00",1467415,6.849,32.76,6.244,1.221,4.523,98.57033,-4.342,-3.054,93.5,0,109.4,13.41,-3.61,354.8
"2016-03-18 01:02:30",1467416,6.771,34.19,6.517,1.316,4.335,98.56977,-4.344,-3.028,93.5,0,109.4,13.41,-3.61,356.2
"2016-03-18 01:03:00",1467417,6.824,34.62,6.236,1.174,4.598,98.57259,-4.337,-3.053,93.5,0,109.4,13.41,-3.60,356.6
"2016-03-18 01:03:30",1467418,6.687,38.31,5.939,1.298,4.425,98.57427,-4.332,-3.017,93.5,0,109.4,13.41,-3.60,0.3
"2016-03-18 01:04:00",1467419,6.488,38.17,7.006,1.194,4.47,98.57456,-4.332,-3.057,93.5,0,109.4,13.41,-3.59,0.2
"2016-03-18 01:04:30",1467420,6.452,39.67,6.393,1.267,4.63,98.57201,-4.338,-3.02,93.5,0,109.4,13.41,-3.60,1.7
"2016-03-18 01:05:00",1467421,6.26,40.19,5.958,1.277,4.465,98.57059,-4.342,-3.036,93.5,0,109.4,13.41,-3.60,2.2
"2016-03-18 01:05:30",1467422,6.237,39.86,6.426,1.306,4.463,98.57115,-4.34,-3.059,93.5,0,109.4,13.41,-3.60,1.9
"2016-03-18 01:06:00",1467423,6.281,41.15,6.432,1.203,4.679,98.57143,-4.34,-3.031,93.5,0,109.4,13.41,-3.60,3.2
"2016-03-18 01:06:30",1467424,6.286,42.65,6.016,1.295,4.688,98.572,-4.338,-3.032,93.5,0,109.4,13.41,-3.60,4.7
"2016-03-18 01:07:00",1467425,7.336,45.59,7.166,1.456,4.631,98.57397,-4.333,-3.048,93.5,0,109.4,13.41,-3.60,7.6
"2016-03-18 01:07:30",1467426,8.01,49.09,5.997,1.275,4.627,98.57767,-4.324,-3.027,93.6,0,109.4,13.41,-3.59,11.1
"2016-03-18 01:08:00",1467427,8.77,50.69,6.649,1.221,4.276,98.58106,-4.315,-3.044,93.5,0,109.4,13.41,-3.58,12.7
"2016-03-18 01:08:30",1467428,8.69,51.23,6.617,1.196,4.682,98.58475,-4.306,-3.052,93.6,0,109.4,13.41,-3.57,13.2
"2016-03-18 01:09:00",1467429,8.57,51.15,6.173,1.231,4.665,98.58617,-4.302,-3.04,93.6,0,109.4,13.41,-3.57,13.2
"2016-03-18 01:09:30",1467430,8.4,49.6,6.38,1.268,4.701,98.58644,-4.301,-3.017,93.6,0,109.4,13.41,-3.56,11.6
"2016-03-18 01:10:00",1467431,8.67,50.65,5.784,1.174,4.587,98.58644,-4.301,-3.027,93.6,0,109.4,13.41,-3.56,12.7
"2016-03-18 01:10:30",1467432,8.5,50.33,6.56,1.252,4.723,98.5873,-4.299,-3.031,93.6,0,109.4,13.41,-3.56,12.3
"2016-03-18 01:11:00",1467433,7.963,50.71,6.696,1.26,4.632,98.5873,-4.299,-3.023,93.6,0,109.4,13.4,-3.56,12.7
"2016-03-18 01:11:30",1467434,8.18,53.62,6.18,1.261,5,98.58672,-4.301,-3.039,93.6,0,109.4,13.41,-3.56,15.6
"2016-03-18 01:12:00",1467435,7.877,54.74,5.905,1.24,4.855,98.58701,-4.3,-3.029,93.6,0,109.4,13.4,-3.56,16.7
"2016-03-18 01:12:30",1467436,7.707,55.6,6.221,1.264,4.808,98.58672,-4.301,-3.022,93.6,0,109.4,13.4,-3.56,17.6
"2016-03-18 01:13:00",1467437,7.71,53.22,6.59,1.165,4.645,98.58617,-4.302,-3.046,93.6,0,109.4,13.41,-3.57,15.2
"2016-03-18 01:13:30",1467438,7.507,52.81,6.455,1.197,4.749,98.58758,-4.298,-3.038,93.6,0,109.4,13.4,-3.56,14.8
"2016-03-18 01:14:00",1467439,7.458,52.93,6.571,1.276,4.596,98.5873,-4.299,-3.038,93.6,0,109.4,13.41,-3.56,14.9
"2016-03-18 01:14:30",1467440,7.609,56.58,6.224,1.245,4.583,98.58701,-4.3,-3.023,93.6,0,109.4,13.41,-3.56,18.6
"2016-03-18 01:15:00",1467441,7.491,52.15,6.693,1.217,4.888,98.5873,-4.299,-3.048,93.6,0,109.4,13.41,-3.56,14.2
"2016-03-18 01:15:30",1467442,7.333,50.18,6.008,1.245,4.594,98.58758,-4.298,-3.017,93.6,0,109.4,13.41,-3.56,12.2
"2016-03-18 01:16:00",1467443,7.598,48.86,6.384,1.194,4.69,98.58672,-4.301,-3.042,93.6,0,109.4,13.41,-3.56,10.9
"2016-03-18 01:16:30",1467444,6.844,47.67,6.397,1.247,4.863,98.58815,-4.297,-3.058,93.7,0,109.4,13.41,-3.56,9.7
"2016-03-18 01:17:00",1467445,6.89,48.54,6.179,1.253,4.751,98.58842,-4.296,-3.031,93.7,0,109.4,13.41,-3.56,10.5
"2016-03-18 01:17:30",1467446,6.826,47.63,6.762,1.232,4.361,98.59013,-4.292,-3.04,93.7,0,109.4,13.41,-3.55,9.6
"2016-03-18 01:18:00",1467447,6.578,46.3,6.389,1.313,4.551,98.5924,-4.286,-3.041,93.7,0,109.4,13.41,-3.55,8.3
"2016-03-18 01:18:30",1467448,6.523,48.43,5.949,1.256,4.687,98.59467,-4.28,-3.024,93.7,0,109.4,13.41,-3.54,10.4
"2016-03-18 01:19:00",1467449,6.804,48.89,6.394,1.125,4.531,98.59411,-4.282,-3.028,93.7,0,109.4,13.41,-3.54,10.9
"2016-03-18 01:19:30",1467450,6.379,49.09,6.163,1.279,4.195,98.59751,-4.273,-3.006,93.7,0,109.4,13.41,-3.54,11.1
"2016-03-18 01:20:00",1467451,6.576,49.75,6.481,1.247,4.429,98.59977,-4.267,-3.029,93.7,0,109.4,13.41,-3.53,11.8
"2016-03-18 01:20:30",1467452,6.719,51.11,6.342,1.279,4.589,98.60204,-4.262,-3.041,93.7,0,109.4,13.41,-3.52,13.1
"2016-03-18 01:21:00",1467453,6.631,54.59,6.194,1.269,4.486,98.60403,-4.256,-3.05,93.7,0,109.4,13.41,-3.52,16.6
"2016-03-18 01:21:30",1467454,7.114,56.29,6.219,1.14,4.57,98.60289,-4.259,-3.004,93.7,0,109.4,13.41,-3.52,18.3
"2016-03-18 01:22:00",1467455,7.55,56.8,5.954,1.154,4.349,98.60119,-4.264,-3.007,93.7,0,109.4,13.41,-3.53,18.8
"2016-03-18 01:22:30",1467456,7.043,55.74,6.576,1.234,3.991,98.59863,-4.27,-3.044,93.7,0,109.4,13.41,-3.53,17.7
"2016-03-18 01:23:00",1467457,6.965,56.14,6.377,1.25,4.28,98.59297,-4.285,-3.033,93.7,0,109.4,13.41,-3.55,18.1
"2016-03-18 01:23:30",1467458,6.837,54.46,6.394,1.241,4.268,98.589,-4.295,-3.019,93.7,0,109.4,13.41,-3.56,16.5
"2016-03-18 01:24:00",1467459,6.704,54.33,6.132,1.283,4.089,98.58842,-4.296,-3.022,93.7,0,109.4,13.41,-3.56,16.3
"2016-03-18 01:24:30",1467460,6.695,51.57,6.177,1.292,4.152,98.58786,-4.298,-3.01,93.7,0,109.4,13.41,-3.56,13.6
"2016-03-18 01:25:00",1467461,6.267,48.02,6.623,1.352,4.069,98.58786,-4.298,-3.025,93.7,0,109.4,13.41,-3.56,10.0
"2016-03-18 01:25:30",1467462,6.029,47.25,6.427,1.233,4.059,98.58531,-4.304,-3.04,93.7,0,109.4,13.41,-3.57,9.2
"2016-03-18 01:26:00",1467463,5.791,47.14,6.982,1.382,4.013,98.58503,-4.305,-3.034,93.7,0,109.4,13.41,-3.57,9.1
"2016-03-18 01:26:30",1467464,5.603,46.78,6.429,1.246,3.762,98.58134,-4.314,-3.034,93.7,0,109.4,13.41,-3.58,8.8
"2016-03-18 01:27:00",1467465,5.787,46.34,6.26,1.236,3.927,98.57993,-4.318,-3.049,93.7,0,109.4,13.4,-3.58,8.3
"2016-03-18 01:27:30",1467466,6.266,48.07,6.325,1.285,3.658,98.57851,-4.321,-3.021,93.7,0,109.4,13.4,-3.58,10.1
"2016-03-18 01:28:00",1467467,6.149,47.46,6.508,1.193,3.667,98.57766,-4.324,-3.051,93.7,0,109.4,13.4,-3.59,9.5
"2016-03-18 01:28:30",1467468,6.116,47.61,6.333,1.294,4.044,98.57681,-4.326,-3.05,93.7,0,109.4,13.4,-3.59,9.6
"2016-03-18 01:29:00",1467469,5.336,46.11,6.399,1.228,3.973,98.57823,-4.322,-3.04,93.7,0,109.4,13.4,-3.59,8.1
"2016-03-18 01:29:30",1467470,5.149,44.55,6.411,1.323,3.632,98.5771,-4.325,-3.066,93.7,0,109.4,13.4,-3.59,6.5
"2016-03-18 01:30:00",1467471,5.267,45.03,6.154,1.29,4.009,98.57823,-4.322,-3.052,93.7,0,109.4,13.4,-3.59,7.0
"2016-03-18 01:30:30",1467472,5.432,46.88,6.059,1.235,4.017,98.5788,-4.321,-3.033,93.7,0,109.4,13.4,-3.58,8.9
"2016-03-18 01:31:00",1467473,5.529,46.54,6.331,1.16,3.933,98.57909,-4.32,-3.055,93.7,0,109.4,13.4,-3.58,8.5
"2016-03-18 01:31:30",1467474,5.85,47.95,6.478,1.239,4.041,98.57936,-4.319,-3.041,93.8,0,109.4,13.41,-3.58,10.0
"2016-03-18 01:32:00",1467475,5.621,46.41,6.557,1.251,3.706,98.57967,-4.319,-3.075,93.7,0,109.4,13.41,-3.58,8.4
"2016-03-18 01:32:30",1467476,5.735,46.72,6.695,1.234,3.944,98.58163,-4.314,-3.059,93.7,0,109.4,13.41,-3.58,8.7
"2016-03-18 01:33:00",1467477,5.562,45.72,6.45,1.251,4.047,98.58192,-4.313,-3.054,93.7,0,109.4,13.41,-3.58,7.7
"2016-03-18 01:33:30",1467478,5.208,44.91,6.507,1.36,3.949,98.58447,-4.306,-3.031,93.8,0,109.4,13.41,-3.57,6.9
"2016-03-18 01:34:00",1467479,5.376,45.74,6.52,1.272,3.848,98.5842,-4.307,-3.049,93.7,0,109.4,13.41,-3.57,7.7
"2016-03-18 01:34:30",1467480,4.606,42.86,5.825,1.166,3.698,98.58674,-4.301,-3.043,93.7,0,109.4,13.41,-3.56,4.9
"2016-03-18 01:35:00",1467481,4.195,39.57,6.509,1.253,3.513,98.5873,-4.299,-3.035,93.7,0,109.4,13.41,-3.56,1.6
"2016-03-18 01:35:30",1467482,4.278,40.72,6.657,1.22,3.749,98.58759,-4.298,-3.05,93.8,0,109.4,13.41,-3.56,2.7
"2016-03-18 01:36:00",1467483,4.462,41.65,6.248,1.24,3.585,98.58645,-4.301,-3.021,93.8,0,109.4,13.41,-3.56,3.7
"2016-03-18 01:36:30",1467484,4.476,41.43,6.363,1.25,3.465,98.58702,-4.3,-3.032,93.8,0,109.4,13.41,-3.56,3.4
"2016-03-18 01:37:00",1467485,4.983,43.03,6.55,1.268,3.197,98.58759,-4.298,-3.046,93.7,0,109.4,13.41,-3.56,5.0
"2016-03-18 01:37:30",1467486,4.778,43.93,7.034,1.249,3.355,98.58815,-4.297,-3.04,93.8,0,109.4,13.41,-3.56,5.9
"2016-03-18 01:38:00",1467487,4.652,45.64,6.714,1.257,3.338,98.59071,-4.29,-3.051,93.8,0,109.4,13.41,-3.55,7.6
"2016-03-18 01:38:30",1467488,4.998,49.94,6.722,1.257,3.424,98.59524,-4.279,-3.018,93.8,0,109.4,13.41,-3.54,11.9
"2016-03-18 01:39:00",1467489,5.248,51.8,6.19,1.223,3.547,98.59695,-4.275,-3.035,93.8,0,109.4,13.41,-3.54,13.8
"2016-03-18 01:39:30",1467490,5.416,54.84,6.232,1.24,3.472,98.60034,-4.266,-3.014,93.8,0,109.4,13.42,-3.53,16.8
"2016-03-18 01:40:00",1467491,5.58,56.22,6.381,1.194,3.583,98.60036,-4.266,-3.029,93.8,0,109.4,13.42,-3.53,18.2
"2016-03-18 01:40:30",1467492,5.457,55.99,6.112,1.226,3.624,98.6012,-4.264,-3.03,93.8,0,109.4,13.41,-3.53,18.0
"2016-03-18 01:41:00",1467493,5.461,54.53,6.171,1.189,3.523,98.60376,-4.257,-3.025,93.8,0,109.4,13.41,-3.52,16.5
"2016-03-18 01:41:30",1467494,5.37,50.82,6.379,1.176,3.089,98.60403,-4.256,-3.035,93.8,0,109.4,13.41,-3.52,12.8
"2016-03-18 01:42:00",1467495,4.451,44.82,6.872,1.314,3.2,98.60349,-4.258,-3.03,93.8,0,109.4,13.41,-3.52,6.8
"2016-03-18 01:42:30",1467496,4.156,43.78,5.655,1.207,3.125,98.6032,-4.259,-2.987,93.8,0,109.4,13.41,-3.52,5.8
"2016-03-18 01:43:00",1467497,4.182,42.05,7.234,1.376,2.369,98.60432,-4.256,-3.043,93.8,0,109.4,13.41,-3.52,4.0
"2016-03-18 01:43:30",1467498,4.293,41.19,6.996,1.35,1.723,98.60461,-4.255,-3.13,93.7,0,109.5,13.41,-3.52,3.2
"2016-03-18 01:44:00",1467499,4.193,41.48,6.574,1.261,2.413,98.60488,-4.254,-3.025,93.8,0,109.5,13.41,-3.52,3.5
"2016-03-18 01:44:30",1467500,3.583,38.98,6.705,1.28,1.177,98.60516,-4.254,-3.078,93.7,0,109.4,13.41,-3.52,1.0
"2016-03-18 01:45:00",1467501,4.008,41.82,7.124,1.346,1.915,98.60516,-4.254,-3.04,93.8,0,109.4,13.41,-3.52,3.8
"2016-03-18 01:45:30",1467502,4.195,43.99,6.335,1.251,2.534,98.60461,-4.255,-3.047,93.7,0,109.4,13.41,-3.52,6.0
"2016-03-18 01:46:00",1467503,3.951,43.4,6.61,1.313,2.744,98.60432,-4.256,-3.026,93.8,0,109.4,13.41,-3.52,5.4
"2016-03-18 01:46:30",1467504,3.072,37.94,7.963,1.327,1.435,98.60545,-4.253,-3.092,93.7,0,109.4,13.41,-3.52,359.9